Location: Guayaquil
(2.1667°S, 79.9000°W)
Time: 08:17:33
(UTC-05:00)

Starlink (trailer) - Visible Passes

Search period start: 19 June 2019 00:00
Search period end: 29 June 2019 00:00
Orbit: 549 x 552 km, 53.0° (Epoch: 19 June)

Date Brightness Start Highest point End Pass type
(mag) Time Alt. Az. Time Alt. Az. Time Alt. Az.
22 Jun 5.8 19:53:37 10° NNE 19:54:56 15° NNE 19:54:56 15° NNE visible
23 Jun 4.9 19:49:18 10° N 19:52:10 27° NE 19:52:10 27° NE visible
24 Jun 3.9 19:45:48 10° NNW 19:49:48 49° ENE 19:49:51 49° ENE visible
25 Jun 3.5 19:42:58 10° NW 19:47:07 90° NNE 19:47:59 55° SE visible
26 Jun 4.3 19:40:50 10° NW 19:44:50 49° SW 19:46:32 30° S visible
27 Jun 6.2 06:00:37 10° SSE 06:03:22 17° SE 06:06:05 10° E visible
27 Jun 5.4 19:39:25 10° WNW 19:43:00 28° SW 19:45:30 16° S visible
28 Jun 5.5 05:58:00 10° S 06:01:43 28° SE 06:05:22 10° ENE visible
28 Jun 6.2 19:38:56 10° W 19:41:34 16° SW 19:44:12 10° SSW visible
